Regional Weather Roundup
Issued by NWS

Home | Current Version | Previous Version | Graphics & Text | Print | Product List | Glossary On
Versions: 1 2 3 4 5 6 7 8 9 10 11 12 13 14 15 16 17 18 19 20 21 22 23 24 25 26 27 28 29 30 31 32 33 34 35 36 37 38 39 40 41 42 43 44 45 46 47 48 49 50
000
ASUS43 KTOP 092308
RWRKS

WEATHER ROUNDUP FOR KANSAS
NATIONAL WEATHER SERVICE GOODLAND KS
600 PM CDT WED JUL 09 2014

NOTE:  "FAIR" INDICATES FEW OR NO CLOUDS BELOW 12,000 FEET WITH NO
SIGNIFICANT WEATHER AND/OR OBSTRUCTIONS TO VISIBILITY.

KSZ001>006-013>018-027>032-041>047-100000-
NORTHWEST KANSAS

CITY           SKY/WX    TMP DP  RH WIND       PRES   REMARKS
GOODLAND       SUNNY     86  61  42 S23G31    29.97F
HAYS           SUNNY     88  55  33 S20G29    29.97F
HILL CITY      SUNNY     90  55  30 S21G28    29.95F
RUSSELL        SUNNY     89  59  36 S21G26    29.95F
$$

KSZ061>065-074>080-084>089-100000-
SOUTHWEST KANSAS

CITY           SKY/WX    TMP DP  RH WIND       PRES   REMARKS
DODGE CITY     SUNNY     85  63  47 S17       29.99F
ELKHART          N/A     95  56  27 S15         N/A
GARDEN CITY    SUNNY     86  64  47 S16G25    29.97F
GREAT BEND     SUNNY     88  57  35 S18       29.97F
LIBERAL        SUNNY     91  63  38 S18G24    29.98F
PRATT          MOSUNNY   88  50  27 SE17      30.00F
$$

KSZ066>073-081>083-090>101-100000-
SOUTHEAST KANSAS

CITY           SKY/WX    TMP DP  RH WIND       PRES   REMARKS
CHANUTE        SUNNY     85  57  38 E5        30.02F
COFFEYVILLE    SUNNY     90  55  30 VRB3      30.00F
HUTCHINSON     SUNNY     90  57  32 S12       29.99F
MEDICINE LODGE   N/A     91  56  30 S8        29.98F
NEWTON         SUNNY     88  55  33 SE9       30.04F
PARSONS        SUNNY     86  60  41 VRB3      30.02F
WICHITA INTL   MOSUNNY   88  58  36 SE13      29.99F
WICHITA JABRA  MOSUNNY   87  62  43 SE10      30.00F
WICHITA MCCONL MOSUNNY   89  57  34 SE8       30.01F
WINFIELD       MOSUNNY   87  65  47 SE8       30.00F
$$

KSZ007>012-019>026-033>040-048>060-102>105-100000-
NORTHEAST KANSAS

CITY           SKY/WX    TMP DP  RH WIND       PRES   REMARKS
CONCORDIA      MOSUNNY   87  60  40 SE14      29.97F
EMPORIA        SUNNY     86  57  37 SE3       30.01F
LAWRENCE       SUNNY     87  61  41 NE6       30.01F
MANHATTAN      PTSUNNY   88  61  40 E9        29.98F
MARYSVILLE     PTSUNNY   82  63  51 SE5       30.00F
OLATHE IND     SUNNY     84  62  47 N6        30.03F
OLATHE EXE     SUNNY     83  61  47 NE6       30.02F
SALINA         SUNNY     91  59  33 SE10G18   29.97F
TOPEKA BILLARD MOSUNNY   86  57  37 NE3       30.01F
TOPEKA FORBES  MOSUNNY   83  60  45 NE5       30.01F
$$



USA.gov is the U.S. government's official web portal to all federal, state and local government web resources and services.